Change the Weather History Date:

Friday, May 24, 2013

  Actual Average (KMSP) Record (KMSP)
Temperature  
Mean Temperature 55 °F 62 °F  
Max Temperature 69 °F 72 °F 95 °F (2010)
Min Temperature 42 °F 51 °F 32 °F (1925)
Degree Days  
Heating Degree Days 10 5  
Month to date heating degree days 188  
Since 1 July heating degree days 7506  
Cooling Degree Days 0 2  
Month to date cooling degree days 24  
Year to date cooling degree days 29  
Growing Degree Days 5 (Base 50)    
Moisture  
Dew Point 38 °F    
Average Humidity 48    
Maximum Humidity 81    
Minimum Humidity 31    
Precipitation  
Precipitation 0.08 in 0.11 in 2.58 in (2012)
Month to date precipitation 2.60  
Year to date precipitation 8.82  
Snow  
Snow 0.00 in 0.00 in T in (1924)
Month to date snowfall 0.0  
Since 1 July snowfall 54.4  
Snow Depth -    
Sea Level Pressure  
Sea Level Pressure 30.32 in    
Wind  
Wind Speed 3 mph (SSE)    
Max Wind Speed 12 mph    
Max Gust Speed 17 mph    
Visibility 10 miles    
Events Rain , Thunderstorm    
T = Trace of Precipitation, MM = Missing Value Source: NWS Daily Summary

Daily Weather History Graph

Daily Weather History Graph

Search for Another Location

Airport or City:

Trip Planner

Search our weather history database for the weather conditions in past years. The results will help you decide how hot, cold, wet, or windy it might be!

Date:

Astronomy

May. 24, 2013 Rise Set
Actual Time 5:34 AM CDT 8:44 PM CDT
Civil Twilight 4:59 AM CDT 9:19 PM CDT
Nautical Twilight 4:13 AM CDT 10:05 PM CDT
Astronomical Twilight 3:18 AM CDT 11:01 PM CDT
Moon 8:25 PM CDT (5/24) 5:09 AM CDT (5/24)
Length of Visible Light 16h 20m
Length of Day
15h 09m
Full, 100% of the Moon is Illuminated
May 24
Full
May 24
Full
May 31
Last Quarter
Jun 8
New
Jun 16
First Quarter

Hourly Weather History & Observations

Time (CDT) Temp. Dew Point Humidity Pressure Visibility Wind Dir Wind Speed Gust Speed Precip Events Conditions
12:14 AM 51.8 °F 27.3 °F 39% 30.35 in 10.0 mi Calm Calm - N/A   Clear
12:34 AM 51.6 °F 28.0 °F 40% 30.35 in 10.0 mi Calm Calm - N/A   Clear
12:54 AM 50.2 °F 28.9 °F 44% 30.36 in 10.0 mi Calm Calm - N/A   Clear
1:14 AM 51.4 °F 27.5 °F 40% 30.36 in 10.0 mi Calm Calm - N/A   Clear
1:34 AM 50.9 °F 27.5 °F 40% 30.35 in 10.0 mi ESE 3.5 mph - N/A   Clear
1:54 AM 50.7 °F 27.9 °F 41% 30.36 in 10.0 mi Calm Calm - N/A   Clear
2:14 AM 49.8 °F 28.2 °F 43% 30.35 in 10.0 mi East 3.5 mph - N/A   Clear
2:34 AM 49.5 °F 28.2 °F 44% 30.35 in 10.0 mi Calm Calm - N/A   Clear
2:54 AM 48.6 °F 28.8 °F 46% 30.36 in 10.0 mi SSE 3.5 mph - N/A   Clear
3:14 AM 47.7 °F 29.7 °F 50% 30.36 in 10.0 mi SSE 3.5 mph - N/A   Clear
3:34 AM 47.5 °F 29.7 °F 50% 30.36 in 10.0 mi Calm Calm - N/A   Clear
3:54 AM 47.5 °F 29.8 °F 50% 30.36 in 10.0 mi SE 4.6 mph - N/A   Clear
4:14 AM 46.8 °F 30.0 °F 52% 30.36 in 10.0 mi Calm Calm - N/A   Clear
4:34 AM 46.2 °F 30.9 °F 55% 30.36 in 10.0 mi Calm Calm - N/A   Clear
4:54 AM 44.2 °F 32.2 °F 63% 30.37 in 10.0 mi Calm Calm - N/A   Clear
5:14 AM 42.3 °F 33.1 °F 70% 30.37 in 10.0 mi Calm Calm - N/A   Clear
5:34 AM 43.0 °F 32.2 °F 66% 30.37 in 10.0 mi Calm Calm - N/A   Clear
5:54 AM 42.1 °F 34.0 °F 73% 30.38 in 10.0 mi Calm Calm - N/A   Clear
6:14 AM 42.8 °F 33.8 °F 70% 30.39 in 10.0 mi Calm Calm - N/A   Clear
6:34 AM 44.6 °F 32.7 °F 63% 30.39 in 10.0 mi Calm Calm - N/A   Clear
6:54 AM 46.4 °F 32.4 °F 58% 30.39 in 10.0 mi Calm Calm - N/A   Clear
7:14 AM 47.7 °F 32.5 °F 56% 30.40 in 10.0 mi SE 3.5 mph - N/A   Clear
7:34 AM 48.7 °F 33.6 °F 56% 30.40 in 10.0 mi ESE 3.5 mph - N/A   Clear
7:54 AM 50.2 °F 34.3 °F 55% 30.40 in 10.0 mi SE 5.8 mph - N/A   Clear
8:14 AM 51.3 °F 34.3 °F 52% 30.40 in 10.0 mi SE 6.9 mph - N/A   Clear
8:34 AM 52.9 °F 35.4 °F 52% 30.40 in 10.0 mi SSE 8.1 mph - N/A   Clear
8:54 AM 54.1 °F 36.7 °F 52% 30.39 in 10.0 mi SSE 6.9 mph - N/A   Clear
9:14 AM 55.2 °F 37.0 °F 50% 30.39 in 10.0 mi SSE 5.8 mph - N/A   Clear
9:34 AM 56.3 °F 37.0 °F 48% 30.39 in 10.0 mi SE 6.9 mph - N/A   Clear
9:54 AM 58.1 °F 37.6 °F 46% 30.38 in 10.0 mi SSE 4.6 mph - N/A   Clear
10:14 AM 59.0 °F 35.6 °F 42% 30.37 in 10.0 mi SSE 8.1 mph - N/A   Clear
10:34 AM 59.7 °F 36.0 °F 41% 30.37 in 10.0 mi South 9.2 mph - N/A   Clear
10:54 AM 61.0 °F 36.0 °F 39% 30.37 in 10.0 mi SSE 8.1 mph - N/A   Clear
11:14 AM 61.7 °F 33.1 °F 34% 30.37 in 10.0 mi SSE 9.2 mph - N/A   Clear
11:34 AM 62.1 °F 33.4 °F 34% 30.37 in 10.0 mi SSE 8.1 mph 17.3 mph N/A   Clear
11:54 AM 63.5 °F 34.9 °F 34% 30.36 in 10.0 mi SSE 8.1 mph - N/A   Clear
12:14 PM 63.3 °F 34.3 °F 34% 30.36 in 10.0 mi SSE 8.1 mph 16.1 mph N/A   Clear
12:34 PM 64.4 °F 36.9 °F 36% 30.35 in 10.0 mi South 9.2 mph - N/A   Clear
12:54 PM 64.4 °F 34.5 °F 33% 30.34 in 10.0 mi SSE 8.1 mph 16.1 mph N/A   Clear
1:14 PM 65.1 °F 36.5 °F 35% 30.33 in 10.0 mi SSE 4.6 mph - N/A   Clear
1:34 PM 66.2 °F 36.9 °F 34% 30.31 in 10.0 mi South 9.2 mph - N/A   Clear
1:54 PM 66.7 °F 36.1 °F 32% 30.30 in 10.0 mi SE 6.9 mph 16.1 mph N/A   Clear
2:14 PM 67.3 °F 36.1 °F 32% 30.29 in 10.0 mi SE 9.2 mph - N/A   Clear
2:34 PM 67.5 °F 36.3 °F 32% 30.27 in 10.0 mi SSE 4.6 mph - N/A   Clear
2:54 PM 68.9 °F 36.9 °F 31% 30.27 in 10.0 mi SE 10.4 mph 16.1 mph N/A   Clear
3:14 PM 68.7 °F 37.8 °F 32% 30.26 in 10.0 mi SE 11.5 mph 17.3 mph N/A   Clear
3:34 PM 68.4 °F 37.9 °F 33% 30.26 in 10.0 mi SSE 9.2 mph - N/A   Clear
3:54 PM 68.0 °F 38.8 °F 34% 30.25 in 10.0 mi SE 6.9 mph - N/A   Clear
4:14 PM 68.5 °F 38.3 °F 33% 30.26 in 10.0 mi SSE 6.9 mph - N/A   Clear
4:34 PM 68.7 °F 38.8 °F 34% 30.25 in 10.0 mi SE 6.9 mph - N/A   Clear
4:54 PM 68.9 °F 39.4 °F 34% 30.25 in 10.0 mi South 6.9 mph - N/A   Clear
5:14 PM 68.7 °F 39.6 °F 34% 30.25 in 10.0 mi SSE 5.8 mph - N/A   Clear
5:34 PM 68.4 °F 40.3 °F 36% 30.27 in 10.0 mi South 4.6 mph - N/A   Clear
5:54 PM 68.4 °F 41.9 °F 38% 30.29 in 10.0 mi SSW 6.9 mph - N/A   Clear
6:14 PM 68.2 °F 42.6 °F 40% 30.28 in 10.0 mi South 8.1 mph - N/A   Clear
6:34 PM 68.0 °F 43.0 °F 40% 30.27 in 10.0 mi South 8.1 mph - N/A   Clear
6:54 PM 68.0 °F 43.5 °F 41% 30.24 in 10.0 mi South 8.1 mph - N/A   Clear
7:14 PM 67.3 °F 44.2 °F 43% 30.22 in 10.0 mi SSE 5.8 mph - N/A   Clear
7:34 PM 66.6 °F 43.7 °F 44% 30.20 in 10.0 mi SE 5.8 mph - N/A   Clear
7:54 PM 66.2 °F 43.5 °F 44% 30.21 in 10.0 mi South 4.6 mph - N/A Thunderstorm Scattered Clouds
8:14 PM 64.9 °F 46.0 °F 50% 30.23 in 10.0 mi SSE 3.5 mph - N/A Rain Light Rain
8:34 PM 63.7 °F 49.3 °F 59% 30.25 in 10.0 mi SW 4.6 mph - N/A Rain Light Rain
8:54 PM 62.8 °F 49.5 °F 62% 30.23 in 10.0 mi SSE 4.6 mph - N/A Rain Light Rain
9:14 PM 62.6 °F 49.6 °F 63% 30.24 in 7.0 mi Calm Calm - 0.01 in Rain Light Rain
9:31 PM 61.7 °F 52.0 °F 70% 30.25 in 10.0 mi Calm Calm - 0.02 in Rain , Thunderstorm Light Thunderstorms and Rain
9:54 PM 60.8 °F 51.3 °F 71% 30.24 in 10.0 mi Calm Calm - 0.02 in   Mostly Cloudy
10:14 PM 60.1 °F 51.6 °F 74% 30.24 in 10.0 mi SSE 3.5 mph - 0.01 in Rain Light Rain
10:34 PM 59.9 °F 51.8 °F 75% 30.26 in 10.0 mi SSW 3.5 mph - 0.01 in Rain Light Rain
10:54 PM 59.2 °F 51.4 °F 75% 30.24 in 7.0 mi SE 4.6 mph - 0.04 in Rain Light Rain
11:14 PM 59.0 °F 52.5 °F 79% 30.26 in 10.0 mi SE 3.5 mph - N/A Rain Light Rain
11:34 PM 58.3 °F 52.3 °F 81% 30.26 in 10.0 mi Calm Calm - 0.01 in Rain Light Rain
11:54 PM 58.3 °F 50.9 °F 76% 30.26 in 10.0 mi Calm Calm - 0.02 in Rain Light Rain